www.pogodaiklimat.ru
ПОГОДА в Докшанах
Время
(UTC), дата
07 8.08
08 8.08
09 8.08
10 8.08
11 8.08
12 8.08
13 8.08
14 8.08
15 8.08
16 8.08
17 8.08
18 8.08
19 8.08
20 8.08
21 8.08
22 8.08
23 8.08
00 9.08
01 9.08
02 9.08
03 9.08
04 9.08
05 9.08
06 9.08
07 9.08
08 9.08
09 9.08
10 9.08
11 9.08
12 9.08
13 9.08
14 9.08
15 9.08
16 9.08
17 9.08
18 9.08
19 9.08
20 9.08
21 9.08
22 9.08
23 9.08
00 10.08
01 10.08
02 10.08
03 10.08
04 10.08
05 10.08
06 10.08
07 10.08
08 10.08
09 10.08
10 10.08
11 10.08
12 10.08
13 10.08
14 10.08
15 10.08
16 10.08
17 10.08
18 10.08
19 10.08
20 10.08
21 10.08
22 10.08
23 10.08
00 11.08
01 11.08
02 11.08
03 11.08
04 11.08
05 11.08
06 11.08
07 11.08
08 11.08
09 11.08
10 11.08
11 11.08
12 11.08
13 11.08
14 11.08
15 11.08
16 11.08
17 11.08
18 11.08
19 11.08
20 11.08
21 11.08
22 11.08
23 11.08
00 12.08
01 12.08
02 12.08
03 12.08
04 12.08
05 12.08
06 12.08
07 12.08
08 12.08
09 12.08
10 12.08
11 12.08
12 12.08
13 12.08
14 12.08
15 12.08
16 12.08
17 12.08
18 12.08
19 12.08
20 12.08
21 12.08
22 12.08
23 12.08
00 13.08
01 13.08
02 13.08
03 13.08
04 13.08
05 13.08
06 13.08
07 13.08
08 13.08
09 13.08
10 13.08
11 13.08
12 13.08
13 13.08
14 13.08
15 13.08
16 13.08
17 13.08
18 13.08
19 13.08
20 13.08
21 13.08
22 13.08
23 13.08
00 14.08
01 14.08
02 14.08
03 14.08
04 14.08
05 14.08
06 14.08
07 14.08
08 14.08
09 14.08
10 14.08
11 14.08
12 14.08
13 14.08
14 14.08
15 14.08
16 14.08
17 14.08
18 14.08
19 14.08
20 14.08
21 14.08
22 14.08
23 14.08
00 15.08
01 15.08
02 15.08
03 15.08
04 15.08
05 15.08
06 15.08
Ветер
(напр.,м/с)
Видим. Явления Облачность Т
(С)
Тd
(С)
f
(%)
Тe
(С)
Тes
(С)
Комфортность P
(гПа)
Po
(гПа)
Тmin
(С)
Tmax
(С)
R
(мм)
R24
(мм)
S
(см)
30 км 1/1 1500 м
[Cu hum]
+22.9 +15.6 63 1021.9 1003.3
30 км ясно +25.8 +14.7 50 1021.4 1003.0
нст 1 30 км ясно +27.9 +15.4 47 +31 +45 душно 1020.9 1002.7 2.1
30 км ясно +30.4 +14.9 39 1020.3 1002.2
30 км 3/3 1500 м
[Cu med, cong]
+31.9 +13.1 32 1019.7 1001.7
нст 2 35 км 5/1 1500 м
[Cu med, cong Ac As]
+32.5 +12.4 29 +33 +42 жарко 1019.2 1001.2 2.2
40 км 3/0
[Ac As]
+33.1 +11.8 27 1018.8 1000.9
40 км 3/3 1500 м
[Cu med, cong]
+33.3 +11.4 26 1018.4 1000.5
нст 2 35 км 3/0
[Ac As]
+33.1 +11.9 28 +33 +38 жарко 1018.3 1000.4 2.3
В 3 35 км 5/0
[Ac As]
+32.4 +11.5 28 +32 +34 жарко 1017.9 999.9
В 2 35 км 3/0
[Ac As]
+31.9 +11.7 29 +32 +33 жарко 1017.9 999.9
ЮВ 1 40 км ясно +28.5 +12.1 36 +30 +30 жарко 1018.0 999.8 +35.0 2.4
Ю 1 40 км ясно +24.3 +13.3 50 +26 +26 жарко 1018.5 1000.1
СВ 1 30 км ясно +22.1 +13.7 59 +25 +25 комфорт 1019.0 1000.4
нст 1 30 км {ливн. дождь, дождь} н/о +20.3 +15.0 72 +24 +24 комфорт 1019.0 1000.3 2.4
штиль 0 30 км {ливн. дождь, дождь} н/о +18.3 +14.5 79 +19 +19 1019.1 1000.3
ЮВ 1 26 км {ливн. дождь, дождь} н/о +17.2 +13.9 81 +18 +18 1019.4 1000.5
штиль 0 23 км {ливн. дождь, дождь} н/о +16.9 +13.9 82 +17 +17 1019.4 1000.5 2.4
18 км {ливн. дождь, дождь} н/о +16.4 +14.0 86 1019.3 1000.4
ЮВ 1 21 км {ливн. дождь, дождь} н/о +16.3 +13.9 86 +17 +17 1019.5 1000.5
Ю 1 19 км {ливн. дождь, дождь} н/о +15.7 +13.5 87 +16 +16 1019.5 1000.5 2.3
Ю 1 16 км {ливн. дождь, дождь} н/о +14.9 +13.3 90 +15 +15 1019.6 1000.5
ЮВ 1 18 км {ливн. дождь, дождь} н/о +17.1 +14.4 84 +18 +18 1019.7 1000.8
нст 1 25 км ясно +21.0 +15.2 69 +25 +28 комфорт 1019.5 1000.9 +14.6 2.2
30 км ясно +23.6 +14.6 57 1019.4 1000.9
35 км ясно +25.9 +14.8 50 1019.0 1000.7
нст 1 35 км 1/0
[Ci fib]
+28.8 +14.9 43 +31 +45 жарко 1018.6 1000.4 2.2
40 км ясно +31.6 +14.9 36 1017.8 999.8
В 3 30 км ясно +32.4 +12.3 29 +33 +45 жарко 1017.1 999.2
нст 2 30 км 3/1 1500 м
[Cu hum Ci fib]
+32.5 +11.5 28 +33 +45 жарко 1016.7 998.8 2.2
ЮВ 4 40 км 3/1 1500 м
[Cu hum Ci fib]
+34.2 +12.1 26 +34 +41 очень
жарко
1016.0 998.2
40 км 5/0
[Ac As]
+34.4 +11.5 25 1015.5 997.7
В 4
{11}
40 км 8/0
[Ac As Ci sp]
+34.4 +14.0 29 +35 +37 очень
жарко
1015.2 997.4 2.4
В 4 35 км 5/0
[Ac As Ci sp]
+33.0 +15.4 35 +35 +37 душно 1014.8 997.0
В 4 25 км 1/0
[Ac As]
+32.3 +14.4 34 +34 +35 душно 1014.6 996.7
В 2
{11}
35 км 1/0
[Ci fib]
+30.1 +15.3 41 +33 +33 душно 1015.0 997.0 +35.1 2.5
В 3 35 км 3/0
[Ci fib]
+26.4 +15.8 52 +30 +30 душно 1015.6 997.4
30 км 1/0
[Ci fib]
+23.8 +16.4 63 1016.1 997.7
нст 1 25 км {дымка} н/о +21.7 +16.6 73 +26 +26 душно 1016.2 997.7 2.5
штиль 0 23 км н/о +19.9 +16.4 80 +22 +22 комфорт 1016.7 998.0
В 2 19 км н/о +20.4 +16.6 79 +24 +24 комфорт 1016.6 998.0
штиль 0 19 км {дымка} н/о +19.2 +16.4 84 +21 +21 комфорт 1016.5 997.8 2.4
СЗ 1 19 км н/о +19.1 +16.1 83 +22 +22 комфорт 1016.5 997.8
11 км н/о +17.6 +16.0 90 1016.7 997.9
В 2 14 км {дымка} н/о +18.1 +15.7 86 +19 +19 1016.7 997.9 2.4
штиль 0 10 км н/о +17.6 +15.8 89 +18 +18 1016.8 998.0
штиль 0 12 км н/о +18.4 +16.3 88 +19 +19 1016.7 998.0
нст 1 20 км 5/0
[Ac As Ci fib]
+21.9 +16.8 73 +26 +28 душно 1016.6 998.1 +17.0 2.3
25 км 5/0
[Ac As]
+24.8 +17.3 63 1016.5 998.2
25 км 5/0
[Ac As Ci fib]
+27.5 +17.7 55 1016.3 998.1
нст 1 30 км 8/0
[Ci fib]
+28.8 +16.9 49 +33 +44 очень
душно
1016.0 997.9 2.3
С 4 25 км 6/6 1410 м
[Cu med, cong Ci fib]
+31.7 +18.1 44 +36 +40 очень
душно
1015.3 997.4
С 3 30 км 8/6 1500 м
[Cu med, cong Ci fib]
+30.2 +17.6 47 +34 +39 очень
душно
1015.2 997.2
СВ 8
{12}
25 км 8/6 1320 м
[Cu med, cong Ci fib]
+30.1 +16.2 43 +33 +34 душно 1015.3 997.3 2.3
В 6
{12}
30 км 10/10 1500 м
[Cb calv]
+27.7 +16.1 49 +31 +31 душно 1015.8 997.6
ЮЗ 4
{19}
18 км гроза, ливневой дождь 10/10 1500 м
[Cb calv]
+19.9 +15.4 75 +22 +22 комфорт 1018.0 999.3 2.4
нст 1
{19}
15 км ливневой дождь {гроза} 10/10 930 м
[Cb calv]
+19.3 +17.1 87 +22 +22 комфорт 1018.2 999.5 2.4
30 км в посл. час ливневой дождь {гроза} 9/4 1410 м
[Sc Ac As]
+19.3 +18.1 93 1017.4 998.7
40 км в посл. час ливневой дождь 8/0
[Ac As Ci fib]
+20.9 +19.0 89 1016.9 998.3
ЮЗ 2
{19}
40 км {гроза, ливн. дождь} 8/1 1320 м
[Cu hum Ac As]
+20.9 +19.8 93 +26 +26 душно 1016.9 998.3 +32.7 4 2.4
Ю 1 30 км 9/3 1500 м
[Cu hum Ac As]
+19.9 +18.8 93 +24 +24 комфорт 1017.4 998.8
Ю 1 15 км 9/0
[Ac trans]
+19.9 +19.1 95 +24 +24 комфорт 1017.6 999.0
СВ 1 6000 м дымка н/о +19.8 +19.3 97 +24 +24 комфорт 1017.7 999.0 2.4
штиль 0 6000 м дымка н/о +19.7 +19.1 96 +22 +22 комфорт 1017.9 999.2
Ю 1 3200 м дымка н/о +19.3 +18.9 98 +23 +23 комфорт 1018.0 999.3
нст 1 3700 м дымка н/о +19.1 +18.7 98 +22 +22 комфорт 1018.4 999.7 2.3
З 1 3200 м дымка н/о +19.0 +18.7 98 +22 +22 комфорт 1018.3 999.6
ЮВ 1 3900 м дымка н/о +18.6 +18.4 99 +21 +21 комфорт 1018.1 999.4
нст 1 3100 м дымка н/о +18.5 +18.3 99 +20 +20 1017.8 999.1 2.3
СЗ 2 2000 м дымка н/о +18.2 +18.0 99 +19 +19 1018.1 999.3
ЮЗ 1 3900 м дымка н/о +19.3 +18.9 98 +23 +23 комфорт 1018.0 999.3
нст 1 11 км 5/0
[Ac As Ci fib]
+20.1 +19.0 93 +25 +27 комфорт 1018.2 999.6 +17.8 4.1
12 км 6/0
[Ac As Ci fib]
+24.0 +19.3 75 1018.3 999.9
15 км 1/0
[Ci fib]
+24.6 +19.4 73 1018.4 1000.0
нст 1 15 км 4/0
[Ac As]
+26.8 +19.6 65 +33 +42 очень
душно
1018.2 1000.0 2.2
ЮВ 3 20 км 4/0
[Ac As]
+28.7 +17.5 51 +33 +41 очень
душно
1017.9 999.8
ЮВ 3 35 км 5/0
[Ac As Ci fib]
+30.1 +16.8 45 +34 +42 очень
душно
1017.3 999.3
ЮВ 4 35 км гроза без осадков 9/4 1500 м
[Cb cap Ac As]
+29.9 +15.5 42 +33 +35 душно 1017.2 999.1 2.3
СЗ 3
{19}
24 км гроза, ливневой дождь 10/4 1000 м
[Cb cap Ac As]
+19.2 +18.0 93 +21 +23 комфорт 1028.9 1010.0 2.3
20 км гроза, ливневой дождь 10/1 1200 м
[Cb cap Ac As]
+19.8 +18.2 90 1018.6 999.9
СЗ 2
{17}
40 км в посл. час гроза {ливн. дождь} 8/0 2000 м
[Ac As]
+22.1 +18.1 78 +27 +30 душно 1017.7 999.2 2.4
45 км 8/0
[Ac As]
+23.4 +18.4 74 1017.6 999.2
30 км 3/0
[Ac As]
+23.2 +19.8 81 1017.3 998.9
нст 1
{17}
30 км {гроза, ливн. дождь} 3/0
[Ac As]
+22.4 +19.2 82 +28 +28 душно 1017.6 999.1 +32.5 6 2.3
40 км 4/0
[Ac As]
+20.8 +18.9 89 1017.9 999.3
25 км ясно +19.0 +18.4 96 1018.3 999.6
Ю 1 3800 м дымка н/о +18.2 +18.0 99 +20 +20 1018.8 1000.0 2.3
штиль 0 2500 м дымка н/о +17.9 +17.6 98 +18 +18 1018.8 1000.0
4000 м дымка н/о +16.9 +16.6 98 1018.8 999.9
ЮЗ 1 3100 м дымка н/о +17.0 +16.6 97 +18 +18 1018.9 1000.0 2.3
Ю 1 200 м туман н/о +15.9 +15.6 98 +17 +17 1018.9 999.9
штиль 0 2100 м дымка {ливн. дождь, туман} н/о +15.7 +15.7 100 +15 +15 1019.0 1000.0
штиль 0 1600 м в посл. час туман {ливн. дождь} н/о +15.7 +15.5 99 +15 +15 1018.9 999.9 2.2
2700 м дымка {туман} н/о +15.2 +15.2 100 1018.9 999.9
4600 м дымка {туман} н/о +16.4 +16.1 98 1019.2 1000.3
СЗ 1 15 км ясно +18.8 +17.2 90 +21 +24 комфорт 1019.3 1000.5 +14.6 5.7
25 км ясно +21.4 +18.2 82 1019.5 1000.9
25 км ясно +23.7 +17.3 67 1019.3 1000.8
нст 2 35 км 3/0 2000 м
[Ac As]
+25.7 +16.0 55 +29 +38 душно 1018.9 1000.6 2.1
35 км ясно +27.9 +16.0 48 1018.5 1000.3
45 км ясно +29.4 +14.9 41 1018.0 999.9
нст 1 45 км 1/1 1500 м
[Cu hum]
+29.9 +14.4 39 +32 +46 жарко 1017.6 999.5 2.2
45 км 1/1 1500 м
[Cu hum]
+30.7 +13.5 35 1016.9 998.9
45 км 3/0
[Ac As]
+31.2 +13.8 35 1016.4 998.4
нст 2 40 км ясно +31.1 +13.2 34 +32 +38 жарко 1015.8 997.8 2.3
ЮВ 2 40 км ясно +31.2 +12.1 31 +32 +35 жарко 1015.4 997.4
ЮВ 3 40 км ясно +30.4 +11.8 32 +31 +32 жарко 1015.0 997.0
ЮВ 2 45 км 4/0
[Ci fib]
+27.3 +14.4 45 +30 +30 душно 1015.3 997.1 +32.0 2.4
45 км ясно +23.7 +14.4 56 1015.7 997.3
СЗ 1 40 км ясно +20.8 +16.0 74 +25 +25 комфорт 1016.1 997.5
нст 1 30 км {дымка} н/о +19.5 +16.2 81 +23 +23 комфорт 1016.3 997.6 2.4
35 км н/о +19.4 +15.8 80 1016.4 997.7
СЗ 1 30 км н/о +18.1 +16.1 88 +19 +19 1016.7 997.9
З 1 23 км {дымка} н/о +16.6 +15.0 90 +17 +17 1016.6 997.7 2.3
19 км н/о +16.6 +15.2 91 1016.4 997.5
Ю 1 14 км н/о +15.6 +14.9 96 +16 +16 1016.2 997.3
ЮВ 1 7000 м дымка {ливн. дождь, туман} н/о +15.5 +15.1 97 +16 +16 1015.9 997.0 2.3
штиль 0 8000 м дымка н/о +15.1 +14.4 96 +15 +15 1016.2 997.2
11 км {туман} н/о +17.0 +16.2 95 1016.0 997.2
нст 1 18 км 3/0
[Ac As]
+20.0 +16.5 80 +24 +26 комфорт 1015.7 997.1 +15.0 2.2
25 км 4/0
[Ac As]
+22.7 +16.2 67 1015.6 997.1
30 км 1/0
[Ac As]
+24.7 +15.6 57 1015.0 996.7
нст 1 30 км 1/0
[Ac As]
+27.3 +15.7 49 +30 +43 душно 1014.6 996.4 2.2
30 км 1/0
[Ci fib]
+29.2 +15.2 43 1014.0 996.0
40 км 3/0
[Ci fib]
+30.8 +13.4 35 1013.1 995.2
ЮВ 4 40 км 3/0
[Ci fib]
+32.0 +13.2 32 +33 +42 жарко 1012.8 994.9 2.2
В 3 40 км 3/0
[Ac As]
+31.5 +11.3 29 +32 +39 жарко 1012.2 994.3
ЮВ 4 50 км 4/1 1230 м
[Cu med, cong Ci fib]
+32.7 +11.1 27 +33 +37 жарко 1011.6 993.8
нст 2 50 км 4/1 1300 м
[Cu med, cong Ci fib]
+32.3 +9.7 25 +32 +36 жарко 1011.4 993.5 2.4
50 км 4/0
[Ci fib]
+32.3 +9.5 25 1010.9 993.1
В 3 50 км 5/1 1140 м
[Cu hum Ci fib]
+31.3 +11.1 29 +31 +32 жарко 1011.3 993.4
В 3 50 км 6/1 1200 м
[Cu med, cong Ci fib]
+28.3 +12.6 38 +30 +30 жарко 1011.6 993.5 +33.4 2.5
В 2 50 км 5/0
[Ac trans Ci fib]
+25.0 +13.2 48 +27 +27 жарко 1011.8 993.5
30 км 3/0
[Ci fib]
+21.9 +14.2 62 1012.2 993.7
штиль 0 35 км {дымка} н/о +20.6 +14.3 67 +23 +23 комфорт 1012.4 993.9 2.5
35 км н/о +19.1 +14.7 76 1012.7 994.1
В 1 35 км н/о +19.4 +14.2 72 +22 +22 комфорт 1012.5 993.9
В 1 35 км {дымка} н/о +19.8 +14.9 73 +23 +23 комфорт 1012.6 994.0 2.4
В 1 30 км н/о +18.4 +15.6 84 +20 +20 1012.7 994.0
20 км н/о +17.2 +15.4 89 1012.6 993.8
штиль 0 23 км {дымка} н/о +17.6 +15.9 90 +18 +18 1012.7 994.0 2.3
штиль 0 18 км н/о +17.4 +16.0 91 +17 +17 1012.7 994.0
15 км н/о +18.0 +16.5 91 1013.0 994.3
нст 1 25 км 8/0
[Ac As Ci fib]
+20.3 +16.9 81 +24 +26 комфорт 1013.0 994.4 +17.1 2.3
25 км 8/0
[Ac As Ci fib]
+22.0 +16.9 73 1012.9 994.5
30 км 8/0
[Ac As Ci fib]
+24.7 +17.4 64 1012.9 994.6
нст 1 25 км 8/0
[Ac As Ci fib]
+24.8 +17.1 62 +29 +38 душно 1012.7 994.4 2.2
25 км 8/0
[Ci fib]
+26.1 +17.5 59 1012.2 994.0
25 км 6/3 1320 м
[Cu med, cong Ci fib]
+26.3 +17.3 58 1012.1 993.9
нст 2 30 км 6/3 1410 м
[Cu med, cong Ci fib]
+28.0 +16.6 50 +32 +40 душно 1011.4 993.3 2.3
30 км 6/5 1500 м
[Cu med, cong Ac As]
+28.2 +16.4 49 1010.8 992.8
25 км 9/9 1020 м
[Cu med, cong]
+28.2 +16.2 48 1010.1 992.1
СЗ 5
{11}
18 км гроза, ливневой дождь 10/5 1470 м
[Cb cap Ac As]
+23.3 +17.8 71 +29 +29 душно 1011.5 993.2 2.4
15 км гроза, ливневой дождь 10/10 1500 м
[Cb cap]
+21.1 +17.1 78 1012.8 994.3
В 3 23 км ливневой дождь {гроза} 10/10 1500 м
[Cb cap]
+19.7 +18.1 90 +23 +23 комфорт 1012.9 994.3
штиль 0
{11}
35 км слаб. дождь {гроза} 10/10 930 м
[Cu Sc]
+19.4 +18.5 95 +22 +22 комфорт 1012.9 994.3 +30.2 4 2.4
18 км слаб. дождь 10/10 1110 м
[Sc]
+19.2 +18.6 96 1012.9 994.3
Ю 1 13 км слаб. дождь 10/10 1500 м
[Sc]
+19.2 +18.5 96 +22 +22 комфорт 1013.7 995.1
СЗ 1 16 км в посл. час дождь н/о +19.1 +18.4 96 +22 +22 комфорт 1013.4 994.8 2.4
6000 м дымка н/о +18.9 +18.6 98 1013.6 995.0
штиль 0 6000 м дымка н/о +18.8 +18.4 98 +20 +20 1013.6 995.0
штиль 0 900 м туман {дождь} н/о +18.3 +18.0 98 +19 +19 1013.5 994.8 0.9 2.3
штиль 0 900 м туман н/о +17.6 +17.5 99 +18 +18 1013.5 994.8
штиль 0 1600 м в посл. час туман {дождь} н/о +17.8 +17.8 100 +18 +18 1013.3 994.6
СЗ 1 200 м туман {дождь} н/о +17.6 +17.5 99 +19 +19 1013.2 994.5 2.3
З 1 100 м туман н/о +17.7 +17.6 99 +19 +19 1013.2 994.5
Ю 1 1500 м в посл. час туман {дождь} н/о +18.0 +18.0 100 +19 +19 1013.6 994.9
штиль 0 4000 м дымка 10/3 180 м
[St Ac As]
+18.6 +18.4 99 +20 +20 1013.8 995.1 +17.4 0.9 4.4
Местоположение метеостанции Докшаны (Чехия): широта 50.47 долгота 14.17 высота над уровнем моря 159 м.
В архиве по умолчанию представлена погода в Докшанах за последнюю неделю. Архивные данные за месяц целиком и за предыдущие месяцы, начиная с января 2011 года, Вы можете получить, выбрав интересующий диапазон дат из раскрывающегося списка и нажав кнопку "Найти!".
*Определитесь, кто Вы:
Внимание! Время в таблицах - всемирное. Для получения местного времени необходимо прибавить поправку, которая равна 1 ч.
Смотрите также архив погоды в соседних городах и на ближайших метеорологических станциях:
Партнеры нашего сайта:      
Пояснения к столбцам:
  • Ветер - указаны скорость ветра в м/с - средняя за 10 мин, порывы в срок и между сроками (в фигурных скобках) и направление, откуда дует ветер: С - северный,
  • СВ - северо-восточный, В - восточный, ЮВ - юго-восточный, Ю - южный, ЮЗ - юго-западный, З - западный, СЗ - северо-западный.
  • Видимость - горизонтальная дальность видимости в метрах или километрах. При видимости от 1 до 10 км при отсутствии осадков обычно наблюдается дымка, при ухудшении видимости до 1 км и менее - туман. В сухую погоду видимость может ухудшаться дымом, пылью или мглою.
  • Явления - указаны атмосферные явления, наблюдавшиеся в срок или в последний час перед сроком; фигурными скобками обозначены явления, наблюдавшиеся между сроками (за 1-3 часа до срока); квадратными скобками обозначены град или гололедные отложения с указанием их диаметра в мм.
  • Облачность - указаны через наклонную черту общая и нижняя облачность в баллах и высота нижней границы облаков в метрах; квадратными скобками обозначены формы облаков: Ci - перистые, Cs - перисто-слоистые, Cc - перисто-кучевые, Ac - высококучевые, As - высокослоистые, Sc - слоисто-кучевые, Ns - слоисто-дождевые, Cu - кучевые, Cb - кучево-дождевые. Подробнее классификацию облаков см. в Атласе облаков (PDF).
  • T - Температура воздуха - температура, измеренная на высоте 2 м над землей.
  • Td - Температура точки росы - температура, при понижении до которой содержащийся в воздухе водяной пар достигнет насыщения.
  • f - Относительная влажность воздуха - влажноcть воздуха, измеренная на высоте 2 м над землей.
  • Te - Эффективная температура - температура, которую ощущает одетый по сезону человек в тени. Характеристика душности погоды. При расчете учитывается влияние влажности воздуха и скорости ветра на теплоощущения человека.
  • Tes - Эффективная температура на солнце - температура, которую ощущает человек, с поправкой на солнечный нагрев. Характеристика знойности погоды. Зависит от высоты солнца над горизонтом, облачности и скорости ветра. Ночью, в пасмурную погоду, а также при ветре 12 м/с и более поправка равна нулю.
  • P - Атмосферное давление - приведенное к уровню моря атмосферное давление.
  • Po - Атмосферное давление - измеренное на уровне метеостанции атмосферное давление.
  • Tmin - Минимальная температура - минимум температуры воздуха на высоте 2 м над землей.
  • Tmax - Максимальная температура - максимум температуры воздуха на высоте 2 м над землей.
  • R - Количество осадков - Количество выпавших осадков за период времени, мм. При наведении курсора мыши на число - период времени, за который выпало указанное количество осадков.
  • R24 - Количество осадков - Количество выпавших осадков за 24 часа, мм.
  • S - Снежный покров - Высота снежного покрова, см. При наведении курсора мыши на число - состояние снежного покрова и степень покрытия местности в баллах.